{"data":{"norad_id":65970,"intl_designator":"2025-228Z","name":"KUIPER-00157","alt_names":[],"object_type":"PAYLOAD","status":"ACTIVE","operator":null,"country":"US","launch_date":"2025-10-14","launch_site_code":"AFETR","launch_vehicle":null,"mission":null,"orbit_class":"UNKNOWN","rcs_meters":null,"size_class":null,"mass_kg":null,"dimensions":null,"purposes":[],"wikipedia_slug":null,"has_3d_model":false,"image_url":null,"decayed_at":null,"tle_current":{"epoch":"2026-05-25T00:40:49.243008Z","epoch_age_seconds":62880,"freshness":"FRESH","line1":"1 65970U 25228Z   26145.02834772  .00003237  00000+0  45349-3 0  9999","line2":"2 65970  51.9035   0.6630 0000649 106.8349 253.2685 14.79919864 34845","mean_motion":14.79919864,"eccentricity":6.49e-5,"inclination_deg":51.9035,"raan_deg":0.663,"arg_perigee_deg":106.8349,"mean_anomaly_deg":253.2685,"bstar":0.00045349,"rev_number":3484,"period_min":97.302565836767,"perigee_km":629.12229593374,"apogee_km":630.03189722348,"semimajor_km":7007.7140965786,"source":"CELESTRAK","updated_at":"2026-05-25T13:38:05.874897Z"}}}